Hourly Data Report for December 16, 2019

MUSKOKA
ONTARIO
Current Station Operator: NAVCAN

44°58'29.000" N
79°18'12.000" W
281.90 m
6115529
71532
YQA

Download Data

Hourly Data (December 2019)
Hourly Data Report for December 16, 2019
TIME
LST
Temp Definition
°C
Dew Point Definition
°C
Rel Hum Definition
%
Precip. Amount Definition
mm

Wind Dir Definition
10's deg

Wind Spd Definition
km/h
Visibility Definition
km
Stn Press Definition
kPa
Hmdx Definition


Wind Chill Definition


Weather Definition


00:00 -10.3 -12.1 87 0.0 LegendMM 4 16.1 98.60   -13 Snow
01:00 -9.9 -11.7 87 0.0   0 16.1 98.64     Snow
02:00 -10.0 -11.5 89 0.0   0 16.1 98.65     Snow
03:00 -9.8 -11.6 87 0.0 LegendMM 4 16.1 98.67   -12 Snow
04:00 -9.8 -11.4 88 0.0 12 5 16.1 98.63   -13 Snow
05:00 -10.5 -12.0 89 0.0 LegendMM 4 16.1 98.64   -13 LegendNANA
06:00 -9.8 -11.7 86 0.0 13 11 16.1 98.67   -15 LegendNANA
07:00 -9.4 -11.3 86 0.0 12 8 16.1 98.70   -14 Snow
08:00 -8.9 -10.4 89 0.0 13 11 16.1 98.68   -14 LegendNANA
09:00 -8.5 -10.0 89 0.0 13 13 16.1 98.70   -14 LegendNANA
10:00 -6.9 -8.6 88 0.0 15 11 16.1 98.74   -12 LegendNANA
11:00 -5.0 -7.1 85 0.0 18 13 16.1 98.75   -10 LegendNANA
12:00 -3.2 -6.0 81 0.0 20 13 16.1 98.67   -8 LegendNANA
13:00 -2.5 -5.8 78 0.0 21 17 16.1 98.62   -8 LegendNANA
14:00 -2.4 -5.0 82 0.0 18 9 16.1 98.54   -6 LegendNANA
15:00 -2.2 -4.6 84 0.0 20 13 16.1 98.58   -7 LegendNANA
16:00 -2.5 -4.7 85 0.0 18 9 16.1 98.58   -6 LegendNANA
17:00 -2.9 -4.6 88 0.0 18 8 16.1 98.57   -6 LegendNANA
18:00 -3.2 -5.0 87 0.0 17 9 16.1 98.60   -7 LegendNANA
19:00 -3.6 -5.2 89 0.0 17 8 16.1 98.57   -7 LegendNANA
20:00 -3.5 -5.4 87 0.0 18 9 16.1 98.53   -7 LegendNANA
21:00 -3.3 -5.5 85 0.0 19 9 16.1 98.47   -7 LegendNANA
22:00 -3.6 -5.3 88 0.0 18 8 16.1 98.43   -7 LegendNANA
23:00 -3.7 -5.4 88 0.0 19 9 16.1 98.39   -7 LegendNANA

Notes on Data Quality.

Legend

  • E = Estimated
  • M = Missing
  • NA = Not Available*
  • [empty] = Indicates an unobserved value
Date modified: